Home   Weather   Waidhofen an der Ybbs   Past weeks

Flag for Austria Past Weather in Waidhofen an der Ybbs, Lower Austria, Austria — Yesterday and Last 2 Weeks

Now
15 °F

Cold.


Feels Like: 9 °F
Forecast: 11 / 27 °F
Wind: 3 mph from East

Location: Amstetten

Current Time: Jan 20, 2017 at 9:13:44 am

Latest Report: Jan 20, 2017 at 8:00 am


Visibility: N/A

Pressure: 30.64 "Hg

Humidity: 91%

Dew Point: 12 °F

Location of Waidhofen an der YbbsLocation

Past Weather in Waidhofen an der Ybbs — Graph

°F

Waidhofen an der Ybbs Temperature Yesterday

Maximum temperature yesterday: 24 °F (at 3:00 pm)
Minimum temperature yesterday: 14 °F (at 7:00 am)
Average temperature yesterday: 19 °F

High & Low Weather Summary for the Past Weeks

 TemperatureHumidityPressure
High41 °F (Jan 13, 10:00 am)100% (Jan 12, 7:00 pm)30.73 "Hg (Jan 12, 7:00 pm)
Low3 °F (Jan 11, 8:00 am)60% (Jan 13, 2:00 pm)29.44 "Hg (Jan 13, 4:00 am)
Average25 °F85%30.27 "Hg
* Reported Jan 5 7:00 am — Jan 20 7:00 am, Waidhofen an der Ybbs, Weather by CustomWeather, © 2017

Note: Actual official high and low records may vary slightly from our data, if they occured in-between our weather recording intervals... More about our weather records

Advertising

Waidhofen an der Ybbs Weather History for the Previous 24 Hours

Scroll right to see more
 ConditionsComfort  
Time TempWeatherWind HumidityBarometerVisibility
7:00 am
Fri, Jan 20
14 °FPassing clouds.2 mph91%30.63 "HgN/A
6:00 am14 °FCold.3 mph91%30.63 "HgN/A
5:00 am15 °FCold.2 mph92%30.64 "HgN/A
4:00 am16 °FCold.3 mph90%30.64 "HgN/A
3:00 am17 °FCold.5 mph86%30.65 "HgN/A
2:00 am18 °FCold.5 mph85%30.65 "HgN/A
1:00 am18 °FCold.6 mph84%30.66 "HgN/A
12:00 am17 °FCold.3 mph86%30.66 "HgN/A
11:00 pm
Thu, Jan 19
18 °FCold.5 mph84%30.66 "HgN/A
10:00 pm18 °FCold.3 mph87%30.66 "HgN/A
9:00 pm18 °FCold.2 mph85%30.66 "HgN/A
8:00 pm19 °FCold.2 mph85%30.65 "HgN/A
7:00 pm21 °FCold.2 mph82%30.65 "HgN/A
6:00 pm21 °FCold.3 mph83%30.63 "HgN/A
5:00 pm22 °FCold.3 mph79%30.63 "HgN/A
4:00 pm24 °FCold.3 mph76%30.63 "HgN/A
3:00 pm24 °FCold.3 mph75%30.63 "HgN/A
2:00 pm24 °FCold.5 mph75%30.63 "HgN/A
1:00 pm23 °FCold.5 mph76%30.64 "HgN/A
12:00 pm22 °FCold.6 mph80%30.67 "HgN/A
11:00 am20 °FCold.5 mph83%30.68 "HgN/A
10:00 am17 °FCold.5 mph90%30.69 "HgN/A
9:00 am15 °FCold.3 mph93%30.69 "HgN/A
Weather by CustomWeather, © 2017

See weather overviewHow to use our weather pages